Regional Weather Roundup
Issued by NWS New Orleans/Baton Rouge, LA

Home | Current Version | Previous Version | Text Only | Print | Product List | Glossary Off
Versions: 1 2 3 4 5 6 7 8 9 10 11 12 13 14 15 16 17 18 19 20 21 22 23 24 25 26 27 28 29 30 31 32 33 34 35 36 37 38 39 40 41 42 43 44 45 46 47 48 49 50

665
ASUS44 KLIX 241310
RWRLIX
NEW ORLEANS REGIONAL WEATHER ROUNDUP
NATIONAL WEATHER SERVICE NEW ORLEANS LA
700 AM CST MON NOV 24 2014

NOTE: "FAIR" INDICATES FEW OR NO CLOUDS BELOW 12,000 FEET WITH NO
      SIGNIFICANT WEATHER AND/OR OBSTRUCTIONS TO VISIBILITY.
      SKY/WX - SKY CONDITION AND SIGNIFICANT WEATHER.
      TMP - AIR TEMPERATURE.     DP    - DEWPOINT TEMPERATURE.
      RH  - RELATIVE HUMIDITY.   PRES  - PRESSURE.
      HI  - HEAT INDEX.          WCI   - WIND CHILL INDEX.

*  THESE STATIONS ARE NOT NWS OR FAA STATIONS AND ARE NOT UNDER
   NWS QUALITY CONTROL.

LAZ038-040-048-061>063-065>067-069-241400-
SOUTHEAST LOUISIANA

CITY           SKY/WX    TMP DP  RH WIND       PRES   REMARKS
N.O. AUDUBON     N/A     67  67 100 MISG        N/A
N.O. INTL ARPT MOCLDY    66  63  90 W8        29.83R
N.O. LAKEFRONT PTCLDY    62  60  93 W10       29.83R FOG
N.O. DOWNTOWN* PTSUNNY   66  63  88 SW3       29.84R
SLIDELL        MOCLDY    67  64  90 CALM      29.82R
BATON ROUGE    CLEAR     60  54  80 NW5       29.85R
BOOTHVILLE     CLEAR     66  66 100 SW6       29.83R FOG
BELLE CHASSE   FOG       66  63  90 SW3       29.83R VSB 1
BOGALUSA*      FOG       64  61  90 W3        29.83R VSB 3/4
NEW ROADS*       N/A     56  51  81 NW9       29.87R
GONZALES*      FOG       60  60 100 CALM      29.83R VSB 1/2
HAMMOND*         N/A     63  59  88 CALM      29.84R FOG
HOUMA*         PTCLDY    64  64 100 SW5       29.84R FOG
PORT FOURCHON* MOSUNNY   70  68  94 W8        29.87R FOG

$$

MSZ070-080>082-241400-
SOUTHERN MISSISSIPPI

CITY           SKY/WX    TMP DP  RH WIND       PRES   REMARKS
MCCOMB         CLEAR     58  53  84 W7        29.83R
GULFPORT       CLEAR     66  65  96 W7        29.81R FOG
BILOXI         CLEAR     65  65 100 VRB2      29.81R FOG
PASCAGOULA     MOCLDY    67  66  97 CALM      29.81R FOG
STENNIS ARPT*  PTCLDY    66  63  88 CALM      29.82  FOG

$$

COASTAL OBSERVATIONS
LAKE AND NEARSHORE STATIONS

STATION/POSITION TIME  TEMP    WIND        PRES    WAVE
                       AIR SEA DIR/SP/G            HT/PER
                 (UTC) (F)     (DEG/KT/KT) (MB)    (FT/S)
PASCAGOULA       1300   63     250/  6/  7 1009.1
WAVELAND YACHT   1300   67     280/  5/  7 1008.9
GRAND ISLE       1300   68 65  270/  7/ 10 1010.5
SOUTHWEST PASS   1300   69                 1010.4
NEW CANAL        1300   65 56  260/  8/ 11 1010.2
SHELL BEACH      1300   67 54  250/  8/  9 1009.6

OFFSHORE STATIONS

STATION/POSITION TIME  TEMP    WIND        PRES    WAVE
                       AIR SEA DIR/SP/G            HT/PER
                 (UTC) (F)     (DEG/KT/KT) (MB)    (FT/S)
64 S DAUPHIN ISL 1151   73 72  250/ 12/ 14 1010.7    5/ 7

$$




USA.gov is the U.S. government's official web portal to all federal, state and local government web resources and services.